Regional Weather Roundup
Issued by NWS Spokane, WA

Home | Current Version | Previous Version | Text Only | Print | Product List | Glossary On
Versions: 1 2 3 4 5 6 7 8 9 10 11 12 13 14 15 16 17 18 19 20 21 22 23 24 25 26 27 28 29 30 31 32 33 34 35 36 37 38 39 40 41 42 43 44 45 46 47 48 49 50
245
NZUS01 KOTX 180857
RWROTX

Eastern Washington/Northern Idaho Roundup
National Weather Service, Spokane WA
100 AM PST SAT NOV 18 2017

Note: "fair" indicated few or no clouds below 12,000 feet with no
significant weather and/or obstructions to visibility.

...Northeast Washington and Northern Idaho Panhandle...

CITY           SKY/WX    TMP DP  RH WIND       PRES   REMARKS
Spokane Intl   MOCLDY    33  31  92 S10       30.25R WCI  25
Spokane Downto CLOUDY    36  32  85 CALM      30.28S
Deer Park      MOCLDY    31  28  89 S6        30.26R WCI  25

...Southeast Washington and southern Idaho Panhandle...

CITY           SKY/WX    TMP DP  RH WIND       PRES   REMARKS
Walla Walla    MOCLDY    42  31  64 S10       30.34R
Pullman/Moscow PTCLDY    35  29  78 SW5       30.32R
Lowell           N/A     37  35  92 CALM      30.37S

...Columbia Basin...

CITY           SKY/WX    TMP DP  RH WIND       PRES   REMARKS
Ephrata        CLOUDY    37  26  64 S3        30.26R
Moses Lake     CLOUDY    41  31  67 CALM      30.28R
Pasco          CLOUDY    45  35  68 SW15      30.33S
Hermiston      MOCLDY    39  33  79 SW6       30.34R
Pendleton      CLOUDY    40  29  64 S8        30.33R

...East Slopes Cascades...

CITY           SKY/WX    TMP DP  RH WIND       PRES   REMARKS
The Dalles     PTCLDY    41  37  86 SE3       30.37S
Yakima         PTCLDY    33  27  78 NW8       30.31R WCI  26
Ellensburg     MOCLDY    36  30  79 W5        30.27S
Omak           PTCLDY    31  27  85 W3        30.24R
Sunnyside      CLOUDY    33  30  90 NE3       30.32R

...Southern British Columbia...

CITY           SKY/WX    TMP DP  RH WIND       PRES   REMARKS

...Western Montana...

CITY           SKY/WX    TMP DP  RH WIND       PRES   REMARKS
Missoula       CLOUDY    34  25  69 CALM      30.23S

...Neighboring Cities...

CITY           SKY/WX    TMP DP  RH WIND       PRES   REMARKS
Seattle        CLOUDY    45  39  79 S10       30.31S
Portland       MOCLDY    46  40  79 S5        30.37F
Boise          CLEAR     30  24  78 SE8       30.37S WCI  22
Great Falls    CLOUDY    33  17  51 SW20      30.03R WCI  21



USA.gov is the U.S. government's official web portal to all federal, state and local government web resources and services.